User: anonymous   Login
Location: Cambridge (historical)
(38.6883°N, 119.0140°W)
Time: 15:36:07
(UTC+00:00)
Language:

NO-84 - Orbit

View from above orbital plane
View from above orbital plane
View from above satellite
View from above satellite

Ground track
Ground track

The orbit data is extracted from the following two-line orbital elements,

1 40654U 15025D   21265.36706752  .00052574  11433-4  28260-3 0  1615
2 40654  54.9734 301.4898 0059885 329.5342  30.2289 15.78201915 22310
Epoch (UTC): 22 September 2021 08:48:34
Eccentricity: 0.0059885
inclination: 54.9734°
perigee height: 295 km
apogee height: 376 km
right ascension of ascending node: 301.4898°
argument of perigee: 329.5342°
revolutions per day: 15.78201915
mean anomaly at epoch: 30.2289°
orbit number at epoch: 2231

The dashed part of the orbit path shows where the satellite is in the earth's shadow,  

DLR